SDM5220 UHMM-UNNT

Flight info

Callsign SDM5220
Flight time N/A
Altitude 34000
Route KUKIR5D KUKIR A949 INLIR G370 KUNIK/K0907F360 G370 ABGUR W289 GISUN W39 ERBOG W105 ENS B911 TOKMO A300 NN G829 REGMI REGMI1M
Aircraft B748/H-SDFGHIMRWXY/S

Departure

Time 2026-04-27 17:18
Airport Sokol Airport (UHMM)

Arrival

Time N/A
Airport Novosibirsk Tolmachevo Airport (UNNT)
Time Latitude Longitude Altitude Speed Heading
2026-04-27 17:07 59.91349 150.72527 544 ft 0 kts
2026-04-27 17:09 59.91348 150.72527 535 ft 0 kts
2026-04-27 17:11 59.91325 150.72527 542 ft 2 kts 10°
2026-04-27 17:11 59.91311 150.72514 542 ft 2 kts 41°
2026-04-27 17:12 59.91296 150.72464 541 ft 2 kts 85°
2026-04-27 17:12 59.91296 150.72450 541 ft 1 kts 95°
2026-04-27 17:12 59.91296 150.72443 541 ft 0 kts 94°
2026-04-27 17:14 59.91296 150.72444 541 ft 0 kts 93°
2026-04-27 17:14 59.91295 150.72501 541 ft 7 kts 93°
2026-04-27 17:14 59.91279 150.72639 538 ft 12 kts 146°
2026-04-27 17:15 59.91155 150.72678 521 ft 23 kts 191°
2026-04-27 17:15 59.91084 150.72461 519 ft 26 kts 275°
2026-04-27 17:15 59.91103 150.72041 521 ft 35 kts 273°
2026-04-27 17:15 59.91120 150.71480 520 ft 47 kts 274°
2026-04-27 17:16 59.91141 150.70834 515 ft 49 kts 274°
2026-04-27 17:16 59.91165 150.70165 509 ft 50 kts 273°
2026-04-27 17:16 59.91180 150.69476 503 ft 41 kts 273°
2026-04-27 17:16 59.91192 150.69142 502 ft 15 kts 295°
2026-04-27 17:17 59.91190 150.69023 502 ft 9 kts 176°
2026-04-27 17:17 59.91165 150.69228 503 ft 37 kts 91°
2026-04-27 17:17 59.91150 150.69902 506 ft 103 kts 93°
2026-04-27 17:18 59.91006 150.74924 1137 ft 198 kts 92°
2026-04-27 17:18 59.90946 150.77330 1993 ft 187 kts 93°
2026-04-27 17:18 59.90875 150.79915 2225 ft 195 kts 92°
2026-04-27 17:18 59.90810 150.82530 2497 ft 202 kts 92°
2026-04-27 17:19 59.90735 150.85263 2635 ft 219 kts 93°
2026-04-27 17:19 59.90646 150.88373 2775 ft 236 kts 92°
2026-04-27 17:19 59.90554 150.91736 2990 ft 251 kts 92°
2026-04-27 17:19 59.90455 150.95224 3520 ft 253 kts 92°
2026-04-27 17:20 59.90390 150.97513 3825 ft 255 kts 92°
2026-04-27 17:20 59.90254 151.02232 4510 ft 258 kts 92°
2026-04-27 17:20 59.90286 151.05801 4979 ft 259 kts 81°
2026-04-27 17:20 59.90656 151.09111 5458 ft 259 kts 69°
2026-04-27 17:21 59.91533 151.12198 5891 ft 260 kts 45°
2026-04-27 17:21 59.92994 151.14253 6341 ft 261 kts 19°
2026-04-27 17:21 59.94774 151.14780 6756 ft 265 kts 353°
2026-04-27 17:21 59.96514 151.13602 7195 ft 270 kts 327°
2026-04-27 17:22 59.97823 151.10924 7626 ft 276 kts 300°
2026-04-27 17:22 59.98308 151.08546 7953 ft 280 kts 283°
2026-04-27 17:22 59.98456 151.03381 8597 ft 285 kts 273°
2026-04-27 17:22 59.98547 150.99391 9067 ft 287 kts 275°
2026-04-27 17:23 59.98668 150.95416 9588 ft 289 kts 276°
2026-04-27 17:23 59.98820 150.91420 10106 ft 291 kts 277°
2026-04-27 17:23 59.98927 150.88762 10334 ft 296 kts 276°
2026-04-27 17:23 59.99117 150.83105 10530 ft 316 kts 276°
2026-04-27 17:24 59.99261 150.78613 10662 ft 334 kts 276°
2026-04-27 17:24 59.99411 150.73898 10772 ft 353 kts 276°
2026-04-27 17:24 59.99566 150.68854 10885 ft 372 kts 276°
2026-04-27 17:24 59.99726 150.63621 11076 ft 388 kts 275°
2026-04-27 17:25 59.99886 150.58256 11559 ft 394 kts 275°
2026-04-27 17:25 60.00046 150.52751 12208 ft 397 kts 275°
2026-04-27 17:25 60.00156 150.49054 12579 ft 398 kts 277°
2026-04-27 17:25 60.00808 150.41902 13370 ft 398 kts 290°
2026-04-27 17:26 60.01831 150.36784 13938 ft 398 kts 298°
2026-04-27 17:26 60.03086 150.31842 14493 ft 401 kts 299°
2026-04-27 17:26 60.04356 150.26932 15061 ft 404 kts 299°
2026-04-27 17:26 60.05597 150.21909 15612 ft 407 kts 296°
2026-04-27 17:27 60.06781 150.16692 16127 ft 410 kts 297°
2026-04-27 17:27 60.07994 150.11572 16613 ft 413 kts 297°
2026-04-27 17:27 60.09112 150.06247 17131 ft 417 kts 294°
2026-04-27 17:27 60.10166 150.00915 17642 ft 420 kts 294°
2026-04-27 17:28 60.11240 149.95407 18158 ft 422 kts 294°
2026-04-27 17:28 60.11941 149.91809 18492 ft 424 kts 294°
2026-04-27 17:28 60.14091 149.80786 19476 ft 430 kts 294°
2026-04-27 17:29 60.15536 149.73361 20115 ft 433 kts 294°
2026-04-27 17:29 60.16262 149.69624 20425 ft 434 kts 294°
2026-04-27 17:29 60.17733 149.62021 21060 ft 438 kts 294°
2026-04-27 17:29 60.18833 149.56322 21496 ft 441 kts 294°
2026-04-27 17:30 60.19925 149.50633 21947 ft 444 kts 294°
2026-04-27 17:30 60.22163 149.38966 22805 ft 450 kts 294°
2026-04-27 17:30 60.22919 149.35004 23102 ft 452 kts 294°
2026-04-27 17:31 60.24046 149.29089 23552 ft 454 kts 293°
2026-04-27 17:31 60.25181 149.23102 23974 ft 457 kts 293°
2026-04-27 17:31 60.26682 149.15161 24485 ft 460 kts 293°
2026-04-27 17:31 60.27813 149.09170 24847 ft 463 kts 293°
2026-04-27 17:32 60.28949 149.03126 25191 ft 465 kts 293°
2026-04-27 17:32 60.31242 148.90866 25915 ft 470 kts 293°
2026-04-27 17:32 60.32394 148.84680 26262 ft 472 kts 293°
2026-04-27 17:33 60.33540 148.78511 26574 ft 475 kts 293°
2026-04-27 17:33 60.34697 148.72260 26892 ft 478 kts 293°
2026-04-27 17:33 60.35846 148.66034 27200 ft 481 kts 293°
2026-04-27 17:33 60.37025 148.59622 27529 ft 484 kts 293°
2026-04-27 17:34 60.38188 148.53271 27818 ft 487 kts 293°
2026-04-27 17:34 60.39351 148.46905 28101 ft 489 kts 293°
2026-04-27 17:34 60.40537 148.40390 28378 ft 492 kts 293°
2026-04-27 17:34 60.41701 148.33960 28692 ft 493 kts 292°
2026-04-27 17:35 60.42878 148.27443 29082 ft 492 kts 292°
2026-04-27 17:35 60.44035 148.21017 29506 ft 490 kts 292°
2026-04-27 17:35 60.45200 148.14531 29920 ft 488 kts 292°
2026-04-27 17:35 60.46361 148.08041 30198 ft 490 kts 292°
2026-04-27 17:36 60.47506 148.01633 30488 ft 490 kts 292°
2026-04-27 17:36 60.48267 147.97347 30693 ft 490 kts 291°
2026-04-27 17:36 60.49799 147.88699 31130 ft 489 kts 292°
2026-04-27 17:36 60.50566 147.84358 31321 ft 488 kts 292°
2026-04-27 17:37 60.52081 147.75754 31596 ft 489 kts 292°
2026-04-27 17:37 60.53207 147.69328 31795 ft 489 kts 292°
2026-04-27 17:37 60.54353 147.62776 32005 ft 489 kts 292°
2026-04-27 17:37 60.55471 147.56351 32222 ft 489 kts 292°
2026-04-27 17:38 60.56609 147.49780 32415 ft 489 kts 292°
2026-04-27 17:38 60.57732 147.43286 32586 ft 490 kts 291°
2026-04-27 17:38 60.58850 147.36798 32773 ft 490 kts 291°
2026-04-27 17:38 60.59957 147.30348 32958 ft 489 kts 291°
2026-04-27 17:39 60.60712 147.25937 33084 ft 489 kts 291°
2026-04-27 17:39 60.62192 147.17267 33268 ft 491 kts 291°
2026-04-27 17:39 60.63300 147.10742 33434 ft 491 kts 290°
2026-04-27 17:39 60.64404 147.04228 33619 ft 491 kts 291°
2026-04-27 17:40 60.65513 146.97647 33807 ft 490 kts 291°
2026-04-27 17:40 60.66242 146.93308 33913 ft 491 kts 291°
2026-04-27 17:40 60.67712 146.84538 34104 ft 492 kts 291°
2026-04-27 17:40 60.68442 146.80167 34213 ft 493 kts 291°
2026-04-27 17:41 60.69544 146.73549 34403 ft 492 kts 290°
2026-04-27 17:41 60.70992 146.64812 34673 ft 490 kts 290°
2026-04-27 17:41 60.72074 146.58252 34858 ft 490 kts 290°
2026-04-27 17:41 60.73146 146.51726 34971 ft 491 kts 290°
2026-04-27 17:42 60.74233 146.45096 35110 ft 491 kts 290°
2026-04-27 17:42 60.74956 146.40665 35215 ft 491 kts 290°
2026-04-27 17:42 60.76376 146.31941 35438 ft 490 kts 290°
2026-04-27 17:43 60.78148 146.20999 35627 ft 491 kts 289°
2026-04-27 17:43 60.79578 146.12114 35775 ft 491 kts 290°
2026-04-27 17:43 60.80630 146.05553 35826 ft 494 kts 290°
2026-04-27 17:44 60.82421 145.94324 35897 ft 505 kts 289°
2026-04-27 17:44 60.84969 145.78227 35927 ft 514 kts 289°
2026-04-27 17:45 60.87166 145.64215 35938 ft 514 kts 289°
2026-04-27 17:45 60.89315 145.50398 35920 ft 508 kts 289°
2026-04-27 17:46 60.91095 145.38870 35916 ft 510 kts 289°
2026-04-27 17:46 60.93567 145.22746 35906 ft 510 kts 289°
2026-04-27 17:47 60.95312 145.11258 35885 ft 507 kts 289°
2026-04-27 17:47 60.97758 144.95061 35857 ft 508 kts 289°
2026-04-27 17:48 60.99845 144.81084 36026 ft 514 kts 289°
2026-04-27 17:48 61.00892 144.74033 36229 ft 513 kts 289°
2026-04-27 17:48 61.01926 144.67041 36524 ft 511 kts 289°
2026-04-27 17:48 61.02949 144.60095 36809 ft 509 kts 289°
2026-04-27 17:49 61.03974 144.53108 36955 ft 512 kts 288°
2026-04-27 17:49 61.05010 144.46028 37089 ft 513 kts 288°
2026-04-27 17:49 61.06030 144.39021 37238 ft 513 kts 288°
2026-04-27 17:49 61.07053 144.31955 37386 ft 514 kts 288°
2026-04-27 17:50 61.08057 144.24999 37511 ft 514 kts 288°
2026-04-27 17:50 61.10078 144.10898 37788 ft 503 kts 288°
2026-04-27 17:50 61.11047 144.04077 37771 ft 493 kts 288°
2026-04-27 17:51 61.12976 143.90449 37917 ft 498 kts 288°
2026-04-27 17:51 61.13943 143.83591 38092 ft 499 kts 288°
2026-04-27 17:51 61.14908 143.76709 38378 ft 497 kts 287°
2026-04-27 17:52 61.15845 143.69983 38695 ft 495 kts 287°
2026-04-27 17:52 61.16799 143.63103 38926 ft 495 kts 287°
2026-04-27 17:52 61.17746 143.56256 39059 ft 496 kts 287°
2026-04-27 17:52 61.18363 143.51781 39173 ft 496 kts 287°
2026-04-27 17:53 61.19625 143.42592 39426 ft 495 kts 287°
2026-04-27 17:53 61.20548 143.35834 39603 ft 494 kts 287°
2026-04-27 17:53 61.22404 143.22170 39825 ft 496 kts 287°
2026-04-27 17:54 61.24256 143.08397 39845 ft 493 kts 287°
2026-04-27 17:54 61.26082 142.94701 39832 ft 496 kts 287°
2026-04-27 17:55 61.27593 142.83287 39807 ft 493 kts 287°
2026-04-27 17:55 61.29697 142.67238 39815 ft 496 kts 287°
2026-04-27 17:56 61.31185 142.55785 39853 ft 493 kts 287°
2026-04-27 17:56 61.32958 142.42026 39877 ft 496 kts 287°
2026-04-27 17:57 61.34724 142.28194 39873 ft 494 kts 286°
2026-04-27 17:57 61.36762 142.12088 39869 ft 494 kts 286°
2026-04-27 17:58 61.38495 141.98254 39823 ft 496 kts 285°
2026-04-27 17:58 61.40204 141.84489 39815 ft 494 kts 285°
2026-04-27 17:59 61.41916 141.70572 39780 ft 492 kts 285°
2026-04-27 17:59 61.43606 141.56696 39809 ft 495 kts 285°
2026-04-27 18:00 61.45004 141.45117 39792 ft 493 kts 286°
2026-04-27 18:00 61.46943 141.28900 39793 ft 496 kts 285°
2026-04-27 18:01 61.48589 141.14980 39781 ft 492 kts 285°
2026-04-27 18:01 61.50215 141.01100 39865 ft 495 kts 285°
2026-04-27 18:02 61.51825 140.87233 39858 ft 494 kts 285°
2026-04-27 18:02 61.53429 140.73262 39849 ft 495 kts 285°
2026-04-27 18:03 61.54745 140.61702 39840 ft 492 kts 285°
2026-04-27 18:03 61.56589 140.45369 39844 ft 494 kts 285°
2026-04-27 18:04 61.58141 140.31457 39831 ft 495 kts 284°
2026-04-27 18:04 61.59679 140.17537 39829 ft 493 kts 284°
2026-04-27 18:05 61.61208 140.03543 39833 ft 494 kts 284°
2026-04-27 18:05 61.62720 139.89558 39831 ft 495 kts 284°
2026-04-27 18:06 61.64226 139.75476 39819 ft 492 kts 284°
2026-04-27 18:06 61.65707 139.61491 39821 ft 495 kts 284°
2026-04-27 18:07 61.66929 139.49829 39832 ft 493 kts 284°
2026-04-27 18:07 61.68634 139.33386 39835 ft 495 kts 283°
2026-04-27 18:08 61.69848 139.21564 39860 ft 502 kts 283°
2026-04-27 18:08 61.70840 139.11845 39830 ft 513 kts 283°
2026-04-27 18:08 61.71331 139.07008 39825 ft 514 kts 283°
2026-04-27 18:09 61.73042 138.89946 39827 ft 512 kts 283°
2026-04-27 18:09 61.74499 138.75220 39875 ft 511 kts 283°
2026-04-27 18:10 61.75689 138.63055 39810 ft 513 kts 283°
2026-04-27 18:10 61.77354 138.45851 39747 ft 513 kts 283°
2026-04-27 18:11 61.78757 138.31165 39769 ft 512 kts 282°
2026-04-27 18:11 61.80153 138.16379 39802 ft 512 kts 282°
2026-04-27 18:12 61.81293 138.04169 39813 ft 512 kts 282°
2026-04-27 18:12 61.82890 137.86856 39830 ft 512 kts 282°
2026-04-27 18:13 61.84013 137.74524 39868 ft 511 kts 282°
2026-04-27 18:13 61.85559 137.57324 39855 ft 512 kts 282°
2026-04-27 18:14 61.86659 137.44937 39837 ft 512 kts 282°
2026-04-27 18:14 61.88176 137.27614 39867 ft 511 kts 282°
2026-04-27 18:15 61.89452 137.12823 39878 ft 511 kts 282°
2026-04-27 18:15 61.90720 136.97948 39886 ft 512 kts 281°
2026-04-27 18:16 61.91758 136.85617 39882 ft 512 kts 281°
2026-04-27 18:16 61.92996 136.70711 39876 ft 512 kts 282°
2026-04-27 18:17 61.94421 136.53307 39896 ft 512 kts 282°
2026-04-27 18:17 61.95624 136.38371 39915 ft 512 kts 282°
2026-04-27 18:18 61.96606 136.26027 39926 ft 512 kts 281°
2026-04-27 18:18 61.97977 136.08546 39916 ft 513 kts 281°
2026-04-27 18:19 61.98936 135.96132 39911 ft 512 kts 281°
2026-04-27 18:19 62.00267 135.78645 39923 ft 512 kts 281°
2026-04-27 18:20 62.01385 135.63716 39929 ft 512 kts 281°
2026-04-27 18:20 62.02303 135.51282 39928 ft 512 kts 281°
2026-04-27 18:21 62.03406 135.36160 39927 ft 512 kts 281°
2026-04-27 18:21 62.04665 135.18591 39924 ft 512 kts 280°
2026-04-27 18:22 62.05720 135.03584 39923 ft 513 kts 280°
2026-04-27 18:22 62.06586 134.91090 39926 ft 513 kts 280°
2026-04-27 18:23 62.07611 134.76073 39926 ft 513 kts 280°
2026-04-27 18:23 62.08785 134.58550 39922 ft 513 kts 280°
2026-04-27 18:24 62.09616 134.45927 39919 ft 513 kts 280°
2026-04-27 18:24 62.10592 134.30908 39923 ft 513 kts 279°
2026-04-27 18:25 62.11557 134.15807 39922 ft 514 kts 279°
2026-04-27 18:25 62.12662 133.98138 39918 ft 514 kts 279°
2026-04-27 18:26 62.13435 133.85533 39916 ft 514 kts 279°
2026-04-27 18:26 62.14347 133.70401 39915 ft 514 kts 279°
2026-04-27 18:27 62.15389 133.52786 39915 ft 514 kts 279°
2026-04-27 18:27 62.16120 133.40219 39915 ft 514 kts 279°
2026-04-27 18:28 62.16988 133.24994 39916 ft 514 kts 278°
2026-04-27 18:28 62.17834 133.09863 39916 ft 514 kts 278°
2026-04-27 18:29 62.18665 132.94672 39913 ft 514 kts 278°
2026-04-27 18:29 62.19611 132.76997 39910 ft 514 kts 278°
2026-04-27 18:30 62.20274 132.64323 39911 ft 514 kts 278°
2026-04-27 18:30 62.21185 132.46544 39911 ft 514 kts 278°
2026-04-27 18:31 62.21820 132.33870 39906 ft 514 kts 278°
2026-04-27 18:31 62.22690 132.16127 39905 ft 514 kts 278°
2026-04-27 18:32 62.23299 132.03458 39908 ft 514 kts 278°
2026-04-27 18:32 62.24012 131.88301 39914 ft 514 kts 278°
2026-04-27 18:33 62.24708 131.73094 39913 ft 514 kts 278°
2026-04-27 18:33 62.25501 131.55254 39911 ft 513 kts 278°
2026-04-27 18:34 62.26052 131.42578 39907 ft 513 kts 278°
2026-04-27 18:34 62.26699 131.27350 39893 ft 513 kts 277°
2026-04-27 18:35 62.27327 131.12163 39888 ft 514 kts 277°
2026-04-27 18:35 62.28043 130.94336 39891 ft 513 kts 277°
2026-04-27 18:36 62.28539 130.81618 39899 ft 513 kts 277°
2026-04-27 18:36 62.29120 130.66345 39908 ft 513 kts 277°
2026-04-27 18:37 62.29682 130.51114 39913 ft 512 kts 277°
2026-04-27 18:37 62.30228 130.35867 39910 ft 512 kts 277°
2026-04-27 18:38 62.30846 130.17973 39909 ft 512 kts 277°
2026-04-27 18:38 62.31356 130.02678 39924 ft 512 kts 277°
2026-04-27 18:39 62.31847 129.87453 39924 ft 513 kts 277°
2026-04-27 18:39 62.32323 129.72182 39921 ft 513 kts 277°
2026-04-27 18:40 62.32782 129.56906 39915 ft 513 kts 277°
2026-04-27 18:40 62.33155 129.44061 39904 ft 513 kts 277°
2026-04-27 18:41 62.33652 129.26266 39901 ft 512 kts 276°
2026-04-27 18:41 62.34058 129.11055 39903 ft 512 kts 276°
2026-04-27 18:42 62.34322 129.00816 39898 ft 512 kts 276°
2026-04-27 18:42 62.34824 128.80528 39896 ft 512 kts 276°
2026-04-27 18:43 62.35183 128.65176 39896 ft 512 kts 276°
2026-04-27 18:43 62.35522 128.49951 39898 ft 511 kts 276°
2026-04-27 18:44 62.35792 128.37241 39905 ft 511 kts 276°
2026-04-27 18:44 62.36102 128.22011 39912 ft 511 kts 276°
2026-04-27 18:45 62.36395 128.06839 39910 ft 511 kts 276°
2026-04-27 18:45 62.36717 127.89049 39912 ft 511 kts 276°
2026-04-27 18:46 62.36975 127.73788 39913 ft 511 kts 276°
2026-04-27 18:46 62.37176 127.61107 39910 ft 511 kts 276°
2026-04-27 18:47 62.37437 127.43254 39910 ft 511 kts 276°
2026-04-27 18:47 62.37645 127.27968 39908 ft 511 kts 275°
2026-04-27 18:48 62.37805 127.15243 39904 ft 511 kts 275°
2026-04-27 18:48 62.37983 126.99916 39904 ft 510 kts 275°
2026-04-27 18:49 62.38141 126.84725 39914 ft 508 kts 275°
2026-04-27 18:49 62.38304 126.67002 39911 ft 508 kts 275°
2026-04-27 18:50 62.38406 126.54285 39913 ft 508 kts 275°
2026-04-27 18:50 62.38515 126.39181 39924 ft 508 kts 275°
2026-04-27 18:51 62.38623 126.21442 39925 ft 508 kts 275°
2026-04-27 18:51 62.38685 126.08846 39930 ft 508 kts 274°
2026-04-27 18:52 62.38745 125.93635 39923 ft 506 kts 275°
2026-04-27 18:53 62.38802 125.71030 39919 ft 506 kts 275°
2026-04-27 18:53 62.38820 125.55793 39923 ft 506 kts 275°
2026-04-27 18:54 62.38822 125.40553 39922 ft 507 kts 275°
2026-04-27 18:54 62.38807 125.25435 39922 ft 506 kts 274°
2026-04-27 18:55 62.38775 125.10355 39920 ft 506 kts 274°
2026-04-27 18:55 62.38720 124.92763 39920 ft 504 kts 274°
2026-04-27 18:56 62.38665 124.80204 39925 ft 506 kts 274°
2026-04-27 18:56 62.38587 124.65138 39929 ft 506 kts 274°
2026-04-27 18:57 62.38488 124.49916 39926 ft 504 kts 274°
2026-04-27 18:57 62.38376 124.34891 39928 ft 505 kts 273°
2026-04-27 18:58 62.38247 124.19707 39922 ft 505 kts 273°
2026-04-27 18:58 62.38075 124.02206 39929 ft 506 kts 273°
2026-04-27 18:59 62.37912 123.87174 39929 ft 504 kts 273°
2026-04-27 18:59 62.37763 123.74657 39929 ft 503 kts 274°
2026-04-27 19:00 62.37535 123.57029 39925 ft 505 kts 274°
2026-04-27 19:00 62.37321 123.41976 39926 ft 502 kts 274°
2026-04-27 19:01 62.37133 123.29517 39938 ft 504 kts 272°
2026-04-27 19:01 62.36850 123.12083 39942 ft 502 kts 273°
2026-04-27 19:02 62.36635 122.99616 39952 ft 503 kts 272°
2026-04-27 19:02 62.36312 122.82006 39938 ft 503 kts 272°
2026-04-27 19:03 62.36069 122.69536 39950 ft 503 kts 273°
2026-04-27 19:03 62.35763 122.54588 39936 ft 502 kts 273°
2026-04-27 19:04 62.35443 122.39632 39938 ft 503 kts 273°
2026-04-27 19:04 62.35103 122.24611 39936 ft 504 kts 272°
2026-04-27 19:05 62.34743 122.09469 39945 ft 503 kts 272°
2026-04-27 19:05 62.34374 121.94496 39937 ft 505 kts 272°
2026-04-27 19:06 62.33986 121.79502 39928 ft 502 kts 272°
2026-04-27 19:06 62.33582 121.64556 39916 ft 502 kts 272°
2026-04-27 19:07 62.33166 121.49696 39916 ft 501 kts 272°
2026-04-27 19:07 62.32731 121.34701 39905 ft 501 kts 271°
2026-04-27 19:08 62.32322 121.21108 39901 ft 501 kts 271°
2026-04-27 19:08 62.31860 121.06230 39915 ft 502 kts 271°
2026-04-27 19:09 62.31379 120.91275 39904 ft 502 kts 271°
2026-04-27 19:09 62.30883 120.76447 39908 ft 503 kts 271°
2026-04-27 19:10 62.30367 120.61443 39905 ft 503 kts 271°
2026-04-27 19:10 62.29838 120.46516 39912 ft 504 kts 271°
2026-04-27 19:11 62.29292 120.31551 39922 ft 503 kts 270°
2026-04-27 19:11 62.28725 120.16554 39898 ft 501 kts 271°
2026-04-27 19:12 62.28052 119.99322 39908 ft 494 kts 271°
2026-04-27 19:12 62.27564 119.86986 39919 ft 499 kts 271°
2026-04-27 19:13 62.26962 119.72270 39923 ft 498 kts 271°
2026-04-27 19:13 62.26240 119.55105 39905 ft 497 kts 271°
2026-04-27 19:14 62.25714 119.42955 39916 ft 493 kts 271°
2026-04-27 19:14 62.25068 119.28301 39924 ft 495 kts 270°
2026-04-27 19:15 62.24298 119.11240 39944 ft 496 kts 270°
2026-04-27 19:15 62.23737 118.99125 39928 ft 494 kts 270°
2026-04-27 19:16 62.22928 118.82104 39941 ft 492 kts 270°
2026-04-27 19:16 62.22340 118.69953 39917 ft 493 kts 270°
2026-04-27 19:17 62.21622 118.55449 39928 ft 492 kts 270°
2026-04-27 19:17 62.20888 118.40965 39929 ft 491 kts 270°
2026-04-27 19:18 62.20018 118.24110 39913 ft 489 kts 269°
2026-04-27 19:18 62.19385 118.12086 39891 ft 491 kts 269°
2026-04-27 19:19 62.18613 117.97686 39901 ft 492 kts 269°
2026-04-27 19:19 62.17820 117.83263 39918 ft 487 kts 270°
2026-04-27 19:20 62.17019 117.68893 39918 ft 485 kts 269°
2026-04-27 19:20 62.16202 117.54569 39912 ft 487 kts 269°
2026-04-27 19:21 62.15374 117.40260 39913 ft 485 kts 269°
2026-04-27 19:21 62.14530 117.25970 39912 ft 487 kts 269°
2026-04-27 19:22 62.13671 117.11697 39921 ft 482 kts 269°
2026-04-27 19:22 62.12801 116.97413 39907 ft 487 kts 269°
2026-04-27 19:23 62.11911 116.83153 39910 ft 486 kts 268°
2026-04-27 19:23 62.11009 116.68910 39915 ft 486 kts 269°
2026-04-27 19:24 62.10099 116.54792 39928 ft 483 kts 269°
2026-04-27 19:24 62.09170 116.40569 39933 ft 483 kts 269°
2026-04-27 19:25 62.08224 116.26337 39916 ft 482 kts 268°
2026-04-27 19:25 62.07269 116.12215 39908 ft 481 kts 268°
2026-04-27 19:26 62.06303 115.98149 39897 ft 481 kts 268°
2026-04-27 19:26 62.05321 115.84024 39881 ft 481 kts 268°
2026-04-27 19:27 62.04321 115.69900 39863 ft 480 kts 267°
2026-04-27 19:27 62.03319 115.55944 39859 ft 481 kts 267°
2026-04-27 19:28 62.02299 115.41953 39864 ft 482 kts 267°
2026-04-27 19:28 62.01261 115.27922 39883 ft 481 kts 266°
2026-04-27 19:29 62.00220 115.14020 39883 ft 479 kts 266°
2026-04-27 19:29 61.99154 114.99986 39874 ft 482 kts 266°
2026-04-27 19:30 61.98077 114.86039 39870 ft 480 kts 266°
2026-04-27 19:30 61.96982 114.72061 39862 ft 478 kts 266°
2026-04-27 19:31 61.95885 114.58186 39857 ft 480 kts 266°
2026-04-27 19:31 61.94762 114.44203 39862 ft 483 kts 265°
2026-04-27 19:32 61.93639 114.30408 39873 ft 480 kts 264°
2026-04-27 19:32 61.92486 114.16428 39867 ft 478 kts 264°
2026-04-27 19:33 61.91332 114.02607 39865 ft 480 kts 264°
2026-04-27 19:33 61.90152 113.88660 39861 ft 480 kts 264°
2026-04-27 19:34 61.88761 113.72450 39865 ft 479 kts 264°
2026-04-27 19:34 61.87765 113.60995 39868 ft 479 kts 264°
2026-04-27 19:35 61.86368 113.45084 39874 ft 478 kts 264°
2026-04-27 19:35 61.85340 113.33502 39869 ft 481 kts 263°
2026-04-27 19:36 61.84100 113.19731 39882 ft 481 kts 263°
2026-04-27 19:36 61.82842 113.05926 39884 ft 480 kts 263°
2026-04-27 19:37 61.82192 112.98836 39875 ft 480 kts 263°